User: anonymous   Login
Location: Caltech
(34.1382°N, 118.1253°W)
Time: 06:49:53
(UTC-08:00)
Language:

Saudisat 1A - Orbit

View from above orbital plane
View from above orbital plane
View from above satellite
View from above satellite

Ground track
Ground track

The orbit data is extracted from the following two-line orbital elements,

1 26546U 00057B   17055.23444320  .00000270  00000-0  43554-4 0  9999
2 26546  64.5558 328.8177 0038695 238.3404 121.3930 14.90458841889827
Epoch (UTC): 24 February 2017 05:37:35
Eccentricity: 0.0038695
inclination: 64.5558°
perigee height: 569 km
apogee height: 623 km
right ascension of ascending node: 328.8177°
argument of perigee: 238.3404°
revolutions per day: 14.90458841
mean anomaly at epoch: 121.3930°
orbit number at epoch: 88982

The dashed part of the orbit path shows where the satellite is in the earth's shadow,  

DLR